STARLINK-4204 (52854 NORAD) Tracking and Keplerian Element Data

This shows tracking and keplerian element data for the satellite.

Feedback or suggestion? Click here.




ElementValue
Catalog52854
NameSTARLINK-4204
Epoch Orbit130
Epoch Day247.83334491
Epoch Year2022
RAAN18.6167
Inclination53.2173
Eccentricity0.0001617
Argument of Perigee43.6586
Mean Anonmoly11.6873
Mean Motion15.12089254
Decay Rate-0.01071199
L11 52854U 22062AA 22247.83334491 -.01071199 00000+0 -66440-1 0 9998
L22 52854 53.2173 18.6167 0001617 43.6586 11.6873 15.12089254 1300

Live tracking and technical data element details for STARLINK-4204 (NORAD 52854). STARLINK-4204 can be tracked NOW for your location showing map with azimuth and elevation plus other details from your city location.

Track the satellite on the map from your city or location and see movement details for azimuth, elevation, latitude, longitude, range, height, and movement on the map or in text.







IsCatalogInMostPopularTable: catalog: 52854, numindb: 5
Update: records affected: 1



GetName: 52854 STARLINK-4204

Hit Count: updated at: Sun, 25 Sep 2022 08:29:33 GMT